GFSNE_500_spd_108.txt.gz
Wind_Speed
30 31 31 30 30 28 31 31 29 31 32 33 36 40 41 40 43 49 50 47 45 43 41 44 47 41 39 39 40 42 42 42 43 42 38 37 38 37
31 33 32 31 30 31 32 34 35 33 32 33 35 39 43 43 39 48 50 51 51 48 44 45 46 48 34 43 45 45 45 46 46 43 38 41 39 37
35 34 32 32 31 32 32 35 36 37 36 34 36 35 41 42 42 40 44 49 50 50 50 47 44 40 40 43 45 48 46 44 45 47 41 39 37 36
37 34 32 35 32 32 34 35 36 38 39 41 41 41 37 41 44 47 46 45 45 47 51 47 44 43 44 44 45 45 46 46 44 42 42 38 37 38
37 36 34 35 33 33 34 31 33 35 36 39 40 40 39 37 43 45 45 46 47 43 43 42 43 45 45 45 45 45 45 43 41 41 37 37 40 41
40 36 34 35 34 33 34 29 31 35 38 44 44 41 45 42 42 42 41 44 43 48 47 44 42 43 43 42 40 37 36 35 35 37 40 42 42 43
37 36 33 34 33 35 34 30 30 32 34 37 42 41 41 40 41 41 41 39 44 46 42 40 38 38 38 36 35 35 36 38 39 40 41 42 43 43
37 34 35 35 33 36 33 31 30 32 33 31 35 42 37 36 40 41 41 34 35 37 38 38 38 37 38 37 36 36 37 36 39 41 43 44 46 46
37 34 37 34 34 36 34 33 28 29 27 37 29 33 40 45 39 42 40 40 36 33 37 36 35 36 37 37 39 40 38 41 43 42 45 46 46 47
37 35 36 34 34 36 35 33 31 28 28 24 34 36 43 45 43 45 41 43 40 40 42 40 41 40 41 42 43 43 44 44 47 47 50 52 53 57
38 36 35 35 34 35 36 36 32 29 28 28 28 30 42 37 41 45 36 28 33 38 41 44 48 44 43 45 48 49 49 51 49 54 55 55 61 62
39 36 35 35 34 36 36 36 34 31 31 31 32 31 28 26 27 27 28 32 32 34 34 38 39 44 45 47 49 55 52 49 51 54 60 64 66 65
41 39 39 39 38 39 39 38 37 34 33 33 34 34 32 32 35 36 41 41 39 39 40 40 42 44 50 49 49 54 58 61 65 63 62 65 68 71
43 42 42 42 45 45 47 46 46 44 43 38 38 38 39 38 39 41 44 41 40 44 48 49 50 55 57 61 64 66 67 65 67 66 66 70 72 74
43 42 43 45 43 43 46 50 56 46 49 48 46 44 46 46 46 47 48 49 51 52 51 53 55 57 60 61 63 69 66 64 66 68 71 75 80 85
51 42 43 41 45 49 46 45 49 55 55 54 52 54 55 55 55 57 55 56 54 58 58 56 58 61 64 67 70 70 72 74 76 78 81 82 84 89
54 45 46 49 50 52 52 51 51 49 52 52 52 55 58 59 58 59 59 59 59 59 61 63 66 67 68 70 71 74 76 77 79 81 85 87 88 88
47 50 51 52 54 56 58 57 57 59 61 61 61 61 61 61 63 65 66 67 66 67 68 69 71 70 70 71 73 75 77 79 80 82 83 85 87 86
38 41 44 48 52 55 56 57 59 61 62 64 64 67 68 69 69 69 71 72 73 72 72 72 74 74 74 74 75 74 74 74 73 72 72 73 78 80
40 41 42 43 44 46 45 46 47 48 49 51 53 56 58 60 62 63 64 64 65 65 65 66 66 66 66 67 68 69 71 73 74 75 75 76 78 79
44 45 46 46 46 47 48 49 50 51 51 52 53 54 55 55 57 57 59 60 61 62 63 63 64 66 67 69 70 71 72 73 74 75 76 78 80 83
51 51 52 53 54 55 56 56 56 57 57 58 58 59 59 60 60 61 62 63 64 65 67 68 69 70 71 72 74 75 76 77 78 79 81 82 84 86
62 62 62 62 63 63 64 64 64 64 64 64 65 66 66 67 67 68 69 70 70 71 72 73 74 75 76 77 78 79 80 82 83 84 84 85 86 86

GFSNE_500_spd_114.txt.gz
Wind_Speed
53 50 51 50 48 48 42 39 37 34 31 28 30 31 31 30 30 31 31 33 35 34 35 39 41 45 43 43 41 41 44 41 41 39 41 42 44 44
52 52 49 49 47 43 38 43 40 36 30 30 31 31 34 35 33 32 32 32 32 37 36 35 37 46 49 50 45 43 41 40 39 40 44 44 47 49
53 53 49 44 49 32 46 44 42 37 31 30 31 31 30 35 39 35 31 31 32 33 39 40 43 43 47 50 52 51 49 44 42 42 39 41 46 47
50 47 42 43 41 42 40 42 42 40 37 31 33 34 33 30 35 39 37 34 36 34 33 39 43 48 46 49 45 47 49 47 49 45 45 45 48 49
47 43 43 41 42 44 42 46 43 41 38 33 32 35 35 33 33 36 38 38 36 35 37 36 40 43 42 43 47 49 50 52 51 51 50 49 50 50
44 45 47 44 42 47 46 43 43 43 38 38 35 35 33 33 32 32 34 38 38 35 37 39 39 43 46 44 40 42 46 49 53 54 56 53 52 52
46 46 46 41 37 32 40 47 44 43 39 39 37 36 33 32 33 34 36 40 44 44 42 40 40 38 43 44 44 47 49 53 52 53 54 52 52 52
45 46 42 40 36 38 45 47 43 41 40 39 37 37 34 35 34 37 38 40 38 35 34 45 42 42 40 41 43 47 50 48 50 50 50 49 47 41
45 40 39 38 36 37 34 42 43 43 41 39 38 38 35 39 37 36 36 33 31 36 40 41 37 38 38 39 39 39 39 42 44 43 39 37 35 34
44 36 47 45 41 46 43 40 42 45 43 40 39 39 39 40 38 37 34 32 35 37 39 41 36 36 40 42 42 41 43 40 38 38 37 35 39 39
37 41 40 44 48 42 45 47 41 48 46 41 41 41 41 39 39 36 35 33 30 34 36 39 43 42 46 43 38 39 40 42 42 42 42 40 41 40
45 36 49 43 40 46 48 48 44 48 50 44 42 42 43 41 41 39 37 35 34 30 34 41 46 47 48 45 40 44 46 46 47 46 45 46 48 48
38 48 47 48 52 49 48 44 47 50 54 45 45 44 43 45 44 42 39 37 36 36 33 30 33 35 41 38 35 34 36 38 44 49 51 53 52 51
50 53 57 53 53 56 58 58 57 54 51 47 47 46 45 45 45 45 42 39 38 37 37 35 37 36 41 40 42 42 39 40 43 46 48 52 53 54
39 40 42 47 51 49 51 50 47 48 48 50 50 49 49 49 48 48 49 49 45 42 41 43 44 44 45 48 47 47 48 47 49 54 54 53 54 56
36 38 40 40 41 48 48 50 50 49 55 55 55 55 54 52 52 52 51 52 53 53 51 52 51 50 51 52 53 53 54 57 57 57 60 63 63 62
32 37 40 44 46 49 50 51 54 56 58 58 58 58 54 54 54 54 52 50 50 52 54 57 57 58 59 60 61 63 63 62 61 64 66 66 69 71
33 33 35 39 43 48 49 52 55 60 61 62 63 63 61 56 54 55 57 55 55 55 57 57 58 59 60 60 61 62 63 65 68 69 68 69 72 73
37 37 40 43 46 47 45 43 45 48 49 51 54 57 58 57 58 58 59 59 59 60 62 64 64 65 65 64 65 66 68 69 71 74 75 77 77 76
37 39 41 42 42 43 44 45 47 50 51 51 50 50 52 53 53 54 56 57 58 60 61 63 65 68 68 67 69 68 69 71 73 73 73 72 72 71
44 45 46 48 49 51 52 52 52 51 51 51 52 53 55 56 56 56 55 55 55 55 55 57 59 61 62 62 62 62 64 65 66 66 66 67 67 68
53 54 54 55 56 56 57 58 59 61 62 62 61 61 60 60 60 61 62 62 62 62 63 63 63 63 64 64 64 65 66 67 67 68 69 70 71 71
64 65 64 66 68 68 68 67 67 67 67 68 69 71 71 71 69 69 69 69 69 69 69 70 70 71 71 71 72 72 72 72 73 73 73 74 75 76

GFSNE_500_spd_117.txt.gz
Wind_Speed
53 51 51 51 52 51 47 48 44 42 38 36 33 32 31 28 25 27 27 31 32 31 30 29 27 50 51 48 44 44 45 46 47 47 39 39 36 41
50 51 49 52 53 52 48 48 46 46 45 40 36 34 33 31 28 26 28 31 32 34 33 35 35 35 35 38 45 46 48 48 48 47 45 39 38 36
51 52 53 53 51 51 46 40 46 52 48 43 38 36 33 33 31 28 28 30 33 35 35 35 35 37 38 39 41 46 50 47 51 52 49 46 43 44
52 54 53 51 51 43 42 42 37 42 45 44 40 38 33 34 33 30 31 33 33 35 37 35 36 33 38 42 43 44 50 54 53 50 51 55 52 52
53 52 49 52 48 44 44 42 50 36 44 47 42 40 36 34 33 32 33 32 35 36 38 38 37 37 34 36 42 47 51 50 49 48 49 49 43 52
55 53 52 50 46 44 45 42 38 40 37 43 44 43 38 38 35 34 35 33 31 33 35 35 36 38 39 40 39 41 45 45 44 47 44 43 45 49
56 53 50 49 47 47 44 39 39 42 37 41 52 51 39 41 36 37 37 35 33 31 32 33 36 40 39 39 40 39 43 44 46 45 44 47 50 53
51 50 48 46 44 43 43 38 40 29 32 39 39 41 40 41 39 38 38 38 35 33 34 38 38 40 44 44 41 42 41 44 47 46 46 49 53 52
47 47 46 47 46 48 42 42 41 32 42 50 44 43 41 42 41 40 41 40 37 33 34 32 30 31 34 36 39 40 42 40 41 43 44 43 44 47
43 43 44 44 44 43 41 40 40 37 37 43 49 44 45 44 43 43 42 41 40 37 33 31 33 32 37 43 38 39 37 40 41 44 41 41 44 42
37 41 43 41 42 42 43 39 40 39 40 41 38 46 48 47 47 47 41 43 42 41 35 34 33 35 38 40 40 41 43 43 41 42 46 45 45 41
42 41 37 40 37 48 49 49 41 43 44 47 44 45 46 51 52 47 44 45 44 43 40 37 36 35 37 39 39 44 40 43 44 42 43 43 44 45
32 37 52 46 46 54 49 52 47 47 52 49 52 51 48 49 53 52 49 45 45 46 42 40 40 39 37 37 41 45 46 44 48 43 44 47 49 50
47 47 45 42 42 53 55 51 50 53 51 53 50 50 54 51 55 54 48 46 47 46 45 43 42 41 40 40 39 37 38 40 42 39 39 41 42 43
32 36 39 45 52 51 52 55 55 57 59 59 60 57 57 52 53 52 50 49 49 48 50 46 46 44 44 42 40 41 42 42 44 46 46 46 46 47
26 30 35 39 37 38 46 45 47 48 50 53 51 55 55 55 53 52 55 55 53 52 53 51 51 51 51 49 46 46 49 52 53 56 57 56 56 55
20 24 29 36 42 44 45 47 50 50 52 53 53 53 55 56 57 57 58 57 57 56 55 54 54 53 53 56 57 56 57 59 60 61 62 63 64 64
33 35 35 34 32 32 33 37 41 45 49 52 54 55 56 58 59 59 62 62 62 60 58 58 58 57 53 56 59 61 61 62 63 64 66 67 69 70
31 33 33 34 36 39 42 44 45 45 44 42 43 45 49 56 58 59 59 62 64 63 63 63 61 62 62 62 63 64 65 65 67 69 70 70 70 71
38 39 41 41 42 42 42 43 43 44 44 46 49 51 53 53 51 50 52 54 58 60 61 64 66 67 68 68 68 69 69 71 72 73 73 74 75 75
45 47 48 48 49 49 50 50 50 51 52 53 53 54 54 53 53 54 56 57 59 61 61 61 60 62 62 64 66 67 68 69 68 69 69 70 69 69
54 55 57 58 58 58 59 59 60 61 61 61 60 59 60 61 61 61 61 60 60 60 61 62 65 67 67 65 64 64 64 65 65 66 67 67 67 67
62 63 65 67 68 68 69 70 72 73 74 74 74 73 73 71 71 70 69 69 68 68 68 69 70 70 69 69 70 71 71 71 72 72 72 72 73 74

GFSNE_500_spd_120.txt.gz
Wind_Speed
63 60 57 59 62 57 56 56 51 46 40 39 38 40 40 37 36 33 32 28 28 24 27 31 28 35 43 42 45 49 46 47 47 47 47 47 46 45
64 62 60 59 56 56 55 55 55 47 39 40 40 41 45 40 37 36 32 30 27 26 26 29 33 34 34 41 51 51 49 48 48 49 50 51 48 50
66 63 60 58 53 51 55 54 53 47 40 37 42 47 49 42 41 40 34 30 30 26 28 30 31 33 34 34 34 43 46 49 51 53 53 52 52 52
72 64 60 56 53 53 55 52 46 46 44 43 45 47 47 49 47 43 37 32 31 30 28 31 35 36 35 36 34 38 39 40 43 49 48 46 44 45
70 72 61 53 49 49 51 49 47 45 46 46 45 41 50 55 52 46 39 36 36 35 32 33 36 39 38 37 38 37 37 47 46 46 48 46 52 50
57 66 60 54 49 49 50 52 47 47 48 43 39 43 38 48 49 44 39 39 40 38 34 33 36 36 40 39 38 39 39 39 44 49 51 51 52 50
48 52 57 57 50 50 54 50 47 48 46 41 45 47 46 45 48 42 42 41 41 38 35 36 36 34 36 40 40 40 42 43 42 44 48 53 53 48
48 47 50 54 51 52 52 48 49 45 40 48 43 37 47 40 48 50 54 46 42 40 39 38 36 36 36 37 41 45 43 41 42 44 42 44 48 50
41 44 47 48 50 53 48 46 47 44 42 42 44 38 36 37 43 50 57 56 46 41 40 38 36 37 37 40 42 45 46 45 43 42 43 43 44 43
35 34 35 41 47 47 47 47 44 42 38 40 38 33 28 45 42 41 41 43 44 42 40 39 37 38 36 39 37 37 38 40 41 43 44 44 43 42
20 46 42 46 44 45 47 47 47 48 44 42 42 43 44 47 44 48 45 46 46 42 42 42 38 38 38 38 35 40 39 42 45 44 43 43 45 49
24 25 29 42 45 45 47 48 49 44 42 43 43 42 43 42 40 41 45 49 49 46 43 46 42 40 40 41 41 39 42 42 43 46 47 50 47 47
35 34 34 33 40 43 49 53 47 45 46 49 48 47 47 45 48 48 47 49 51 52 49 49 47 43 43 43 44 44 41 43 44 45 46 50 55 49
30 30 31 40 36 41 46 49 50 51 56 61 59 52 52 54 55 54 53 53 54 53 53 52 50 48 45 46 44 44 45 45 48 51 51 53 54 55
25 32 38 43 40 44 45 48 52 50 54 54 53 52 49 51 55 60 60 52 56 57 55 54 55 53 50 46 45 46 48 49 50 50 49 49 51 56
12 14 19 25 26 26 26 29 35 46 53 56 54 54 58 59 59 58 60 57 57 57 57 57 56 55 53 50 50 50 49 50 51 53 52 51 49 52
30 28 24 22 23 24 28 32 34 36 39 44 45 49 51 51 54 54 54 62 64 65 61 59 56 58 57 57 55 53 55 55 56 56 57 59 58 58
25 25 27 28 31 33 34 34 33 33 34 38 41 45 49 52 54 55 56 57 60 60 59 60 61 64 63 60 60 59 57 59 59 61 64 67 67 66
32 33 33 33 34 35 35 36 37 39 43 45 46 44 41 42 45 50 53 55 57 61 64 65 65 65 65 64 63 62 61 61 63 63 65 68 68 69
36 38 38 39 40 40 41 42 43 43 44 45 45 47 49 52 54 54 52 50 49 52 55 58 61 63 63 63 63 64 65 67 68 70 71 72 73 73
42 43 44 46 47 49 50 51 51 52 52 51 51 51 52 52 52 53 54 56 58 60 61 60 59 59 59 59 59 61 65 67 69 72 73 74 76 77
49 51 53 55 56 57 58 58 60 62 63 64 65 64 63 62 61 60 60 60 60 59 59 59 59 60 61 63 65 65 66 66 66 66 68 71 73 74
60 62 63 65 66 67 68 69 71 72 71 69 70 70 71 72 74 75 75 74 73 72 70 69 68 67 67 67 67 67 67 68 68 69 70 71 72 72

GFSNE_500_spd_123.txt.gz
Wind_Speed
60 61 60 59 59 58 54 53 51 53 53 49 48 44 42 44 43 38 35 37 36 33 32 31 30 30 33 40 39 45 42 39 46 50 47 47 46 46
61 60 59 60 60 58 56 54 52 48 53 50 49 43 42 45 44 39 36 40 37 35 32 31 29 27 30 24 38 41 38 39 41 44 48 49 50 48
61 60 59 59 61 60 57 56 55 56 48 53 48 45 44 46 45 42 41 42 41 35 34 31 30 31 29 31 31 31 38 45 45 46 49 52 51 51
65 66 62 62 63 62 58 58 54 53 54 49 45 44 47 48 49 46 44 42 44 39 37 35 30 30 30 31 32 33 33 32 31 38 40 48 43 47
68 71 71 70 67 66 63 60 55 53 51 53 49 48 47 50 49 48 46 46 47 51 42 40 36 33 31 31 35 36 34 34 33 38 47 38 37 39
69 66 68 70 69 71 73 66 56 52 52 48 51 49 46 49 50 45 45 49 53 50 45 44 39 37 35 35 35 36 40 37 36 39 41 41 54 43
53 53 57 60 62 62 63 64 57 53 52 48 54 47 47 48 44 44 50 46 47 55 49 44 42 39 38 37 35 35 35 39 39 40 41 41 44 48
56 51 50 56 59 54 55 59 59 54 51 49 49 46 43 48 45 42 43 43 46 47 46 49 46 40 38 38 36 35 36 38 40 41 43 44 47 48
35 35 42 42 42 47 50 54 54 53 52 52 46 46 49 50 44 44 49 52 47 48 53 55 47 42 40 39 38 37 37 37 39 43 47 47 46 43
29 24 28 37 39 41 48 52 52 51 53 51 48 48 48 45 45 42 43 45 44 49 55 55 55 50 45 41 39 41 38 40 42 41 42 48 46 47
21 23 19 29 39 40 44 45 49 54 53 50 51 48 43 39 44 46 48 41 47 41 43 51 53 50 43 42 41 43 43 39 39 38 37 38 48 53
12 14 22 26 31 40 40 46 46 41 49 47 45 44 42 42 40 42 41 40 40 44 44 44 46 45 43 41 42 43 45 43 42 40 40 43 42 47
10 14 15 26 22 32 37 41 45 49 46 46 47 45 48 48 44 51 50 49 47 44 43 45 47 49 48 47 45 46 46 45 47 46 44 45 50 49
17 16 22 25 25 26 36 33 36 39 42 48 53 50 48 50 55 50 51 48 50 50 49 49 49 51 52 54 53 51 48 48 47 47 49 48 48 48
15 19 21 30 29 37 39 39 43 38 50 49 58 57 51 49 59 55 60 63 56 57 58 61 55 55 55 57 57 55 53 49 49 49 49 50 52 52
24 17 13 12 22 30 39 42 41 43 46 46 51 51 47 57 57 55 57 53 55 57 61 61 61 63 59 57 58 59 56 54 52 51 50 52 53 54
18 18 20 27 29 24 21 22 25 31 34 38 43 49 54 59 60 61 57 56 56 57 57 60 62 65 65 64 59 56 58 60 58 57 55 54 55 55
21 22 24 25 26 27 30 32 33 32 34 33 35 36 38 44 46 49 51 53 54 55 57 60 63 63 64 67 65 66 65 63 63 62 62 60 58 58
27 27 28 29 30 31 32 33 34 35 36 38 40 41 42 43 42 44 47 51 53 55 55 56 57 57 59 64 64 65 67 68 69 68 70 67 64 63
31 32 33 34 34 35 36 37 38 39 40 40 41 42 45 46 48 49 50 51 52 51 52 55 60 63 64 66 67 68 71 72 74 71 71 70 70 69
38 39 40 41 43 44 46 46 47 48 49 50 51 52 53 53 53 53 53 53 54 56 57 60 62 61 59 58 59 62 66 69 70 72 72 70 69 70
48 49 50 52 53 54 55 56 57 58 59 60 61 61 61 61 61 62 63 64 64 64 62 61 60 60 61 61 63 64 65 65 64 64 64 65 66 68
59 60 62 63 65 65 66 67 68 69 70 69 69 68 69 70 71 72 73 73 73 73 72 72 72 72 70 69 68 67 66 66 66 66 66 68 68 69

GFSNE_500_spd_129.txt.gz
Wind_Speed
58 58 58 57 56 55 50 47 46 44 41 38 40 40 39 37 33 32 35 37 38 40 39 38 40 40 40 39 35 34 34 32 27 38 47 47 50 55
60 61 59 58 57 56 55 49 46 47 44 42 43 40 41 42 43 41 40 40 41 42 43 43 44 43 42 40 32 32 33 31 30 40 47 41 52 52
53 55 59 61 57 55 52 51 51 48 48 42 43 43 44 42 46 49 50 51 50 49 47 48 48 45 44 41 35 31 30 29 28 38 47 46 46 47
53 52 54 59 57 53 51 50 49 51 52 49 44 44 44 44 45 48 52 54 51 51 51 53 51 46 46 46 39 32 30 31 27 31 33 46 48 47
53 54 52 55 57 56 53 51 51 51 53 53 48 46 45 45 48 49 51 50 51 51 51 52 54 49 48 48 42 38 33 32 30 29 29 26 46 48
50 52 54 53 53 55 55 54 53 54 53 54 54 53 51 50 50 51 51 53 54 55 51 51 55 51 50 49 45 41 38 36 35 32 30 31 34 30
51 51 52 51 52 53 55 56 56 55 55 55 56 57 58 57 56 54 52 52 52 52 51 50 52 53 51 50 49 47 45 41 41 38 35 33 33 38
51 52 50 50 51 53 55 54 54 56 56 58 59 61 65 63 61 60 55 57 54 52 54 53 52 51 51 51 49 49 46 45 46 44 39 38 35 34
38 46 48 49 52 55 56 56 58 60 60 59 54 51 64 66 67 66 61 55 55 55 56 57 58 52 52 52 51 50 49 51 49 47 43 41 37 36
17 26 34 39 42 47 51 51 50 52 53 54 53 50 49 58 59 63 61 62 61 57 57 56 57 51 50 52 51 47 46 44 51 51 47 44 41 39
18 18 20 25 32 36 41 44 41 37 48 58 52 55 54 53 52 58 61 62 62 60 57 56 56 50 47 51 52 47 48 42 49 52 48 45 42 42
10 12 18 16 19 14 23 18 22 26 26 31 46 33 42 45 50 53 58 57 60 58 55 56 54 55 58 56 55 54 55 50 47 50 49 49 48 47
7 11 15 15 24 23 24 23 33 39 41 39 35 39 42 45 48 48 52 55 55 56 59 55 52 54 57 58 56 54 53 57 55 54 56 55 56 53
13 11 8 8 4 6 12 19 22 27 29 33 36 38 37 44 49 43 57 56 53 56 59 57 54 49 58 57 53 51 57 53 55 51 53 54 55 54
14 15 18 20 19 17 1 3 7 11 19 27 31 33 39 42 39 43 55 57 59 62 57 56 54 61 54 47 52 57 49 49 58 54 53 51 50 50
14 14 14 15 16 17 17 21 19 12 10 16 21 23 28 36 48 51 48 62 62 51 66 57 53 62 58 55 50 50 56 53 51 51 55 56 57 57
23 22 22 20 20 20 20 20 21 21 21 22 21 21 26 28 31 39 46 50 55 53 51 55 61 55 62 59 60 61 59 55 55 56 59 58 57 56
25 25 25 25 25 25 26 27 28 28 28 28 28 28 29 29 29 34 38 42 46 51 54 54 54 57 60 64 59 66 65 65 70 65 60 62 65 66
29 29 29 29 30 31 32 32 33 35 36 36 36 36 35 35 36 37 38 38 41 44 49 53 54 57 59 59 62 65 67 69 70 67 64 64 67 69
36 36 37 37 37 37 37 38 39 39 40 41 41 42 43 44 43 42 42 42 44 46 46 46 48 51 54 58 61 63 64 63 65 68 67 67 69 70
42 43 45 46 46 46 46 46 46 48 49 50 50 51 50 50 51 51 50 49 49 49 49 50 51 52 52 53 55 55 57 62 65 66 66 67 69 74
49 51 52 54 55 56 57 58 58 58 59 59 60 60 60 61 62 61 61 60 60 59 58 58 57 57 57 56 56 57 59 61 62 65 68 69 69 70
57 59 60 62 63 64 66 66 66 66 67 67 68 69 70 71 71 71 71 71 71 70 70 69 67 66 65 65 65 64 64 63 63 63 65 67 70 73

GFSNE_500_spd_132.txt.gz
Wind_Speed
51 51 49 51 56 62 62 60 57 57 55 51 47 43 43 44 44 41 30 34 41 44 48 46 41 41 41 41 41 40 39 39 38 40 42 43 47 47
52 53 51 50 53 57 59 61 60 58 56 50 48 45 45 45 44 42 39 42 39 46 42 48 43 40 39 40 42 41 42 42 41 41 40 42 44 41
51 52 61 59 56 57 58 57 58 57 59 50 49 47 47 46 46 46 46 46 42 45 49 47 44 43 42 45 47 45 45 42 42 40 39 38 35 45
49 47 48 54 60 59 60 58 55 53 56 54 48 50 50 49 50 50 48 49 50 47 52 53 51 47 47 48 50 49 48 46 43 41 40 36 31 40
52 52 51 50 52 59 62 58 56 54 54 56 49 50 50 51 50 50 50 51 49 53 53 56 56 55 54 54 55 52 49 49 46 43 43 38 37 38
57 58 57 53 50 54 58 61 57 55 54 54 53 50 51 50 51 50 52 52 52 52 53 55 55 55 56 57 57 53 53 51 49 46 48 43 39 36
46 49 59 56 54 52 54 59 59 55 53 53 53 53 51 53 52 52 51 50 51 51 52 53 56 58 57 56 54 54 56 53 51 47 47 46 43 40
43 42 41 56 57 53 51 51 55 55 55 55 56 57 55 55 55 54 54 55 54 53 55 55 58 59 60 62 61 58 56 55 50 50 49 50 49 46
31 38 35 37 52 53 49 48 50 50 52 54 56 57 57 56 55 56 58 59 58 59 61 61 60 59 60 60 59 57 56 55 52 52 49 52 53 51
18 20 20 25 35 51 51 49 50 50 51 52 54 55 56 58 58 59 61 63 69 68 67 64 62 61 64 63 61 59 56 56 54 54 52 50 51 52
6 27 29 20 19 29 42 51 54 54 55 56 56 55 57 60 64 65 64 59 62 63 65 67 70 67 66 66 63 60 60 60 56 52 54 54 55 57
19 12 3 18 30 31 32 31 35 43 50 50 52 56 58 60 60 61 63 67 69 70 64 69 71 70 70 67 65 61 61 58 64 55 57 54 53 52
20 21 15 6 10 19 22 32 30 30 34 35 31 34 46 52 59 62 66 69 60 55 56 60 67 70 72 72 65 62 60 61 61 52 53 56 58 57
24 22 20 13 8 6 10 24 29 32 31 33 37 35 35 39 46 41 47 52 54 61 60 60 62 68 72 71 66 64 60 61 64 59 56 62 60 59
18 19 20 18 18 16 15 7 4 9 21 34 42 45 46 46 47 43 42 48 53 51 59 57 58 63 66 62 64 69 58 54 53 55 54 67 64 68
25 24 23 21 20 19 18 18 19 20 19 13 14 16 19 33 42 47 49 49 55 56 55 51 50 61 61 71 54 59 59 58 57 55 58 59 59 63
28 28 28 27 25 23 22 22 22 22 22 23 23 24 23 21 24 30 35 41 47 50 52 53 56 62 62 65 60 60 64 60 59 58 60 56 55 54
32 32 32 31 31 30 30 30 30 30 29 29 30 30 30 30 32 32 30 33 37 42 47 52 54 61 71 62 61 62 64 58 66 64 58 56 54 52
38 38 39 39 38 38 37 36 36 36 36 36 37 38 38 37 37 37 38 39 39 40 42 46 50 52 57 59 62 61 61 66 61 62 65 66 61 62
45 44 44 45 46 46 45 45 45 45 45 45 45 45 44 44 44 44 44 44 44 45 46 47 47 49 50 51 55 58 58 58 60 65 66 68 68 69
50 50 50 49 50 51 50 51 51 53 55 56 56 55 54 54 53 53 53 53 53 52 50 50 51 51 52 53 53 54 56 59 63 64 65 65 66 69
52 53 54 55 55 55 56 57 57 58 59 61 63 64 65 64 64 63 63 62 62 62 62 61 60 58 58 57 57 57 58 58 59 61 63 65 66 66
52 53 54 55 56 57 59 61 63 65 66 66 66 67 69 71 72 72 71 71 71 70 71 71 71 71 70 68 67 65 64 63 62 62 63 64 64 64

GFSNE_500_spd_135.txt.gz
Wind_Speed
54 52 53 55 58 63 62 58 61 66 64 63 58 52 53 52 56 47 45 42 39 45 52 47 49 56 52 49 47 46 45 44 42 40 39 37 37 38
48 50 49 52 51 56 63 63 61 65 67 60 60 58 55 53 53 48 47 46 46 36 43 46 49 51 55 49 49 49 45 44 42 42 41 42 41 41
52 57 56 54 53 52 54 61 62 60 62 61 59 60 59 58 53 51 49 48 52 45 41 38 42 48 59 53 48 49 46 45 43 42 41 42 42 45
57 56 57 58 59 59 58 60 66 61 59 60 57 58 56 56 53 45 42 51 51 48 51 49 46 50 52 47 52 52 50 48 45 43 43 44 43 45
54 53 54 55 52 54 55 52 67 68 65 63 55 56 55 54 56 59 56 54 53 53 52 49 47 47 56 58 58 56 54 50 48 47 46 46 45 46
53 55 56 57 57 55 58 58 56 56 63 64 62 57 56 56 57 58 57 56 57 57 57 53 53 53 53 54 56 55 52 53 54 52 52 50 49 48
51 53 54 54 50 53 64 63 60 56 56 62 61 62 58 59 57 59 59 58 60 59 59 57 56 55 55 57 57 58 58 59 58 55 55 55 53 50
46 48 49 49 49 50 48 55 65 59 54 57 60 62 62 59 57 58 58 59 60 59 59 58 58 58 58 55 56 57 58 58 59 57 57 56 55 53
30 32 40 46 50 50 48 46 53 60 56 54 56 57 59 60 57 58 59 58 59 62 61 58 59 58 59 60 60 60 59 61 60 58 58 56 56 56
16 17 20 16 18 34 37 37 39 54 56 54 53 53 54 58 59 59 61 61 61 61 61 61 58 59 61 61 62 63 63 63 64 62 59 58 58 59
17 18 8 17 21 20 25 27 31 45 54 54 53 52 53 54 57 59 62 62 63 63 64 63 61 65 65 67 66 65 66 65 66 64 64 61 61 61
26 20 17 10 4 14 31 25 27 35 47 53 54 56 55 55 57 60 61 63 64 65 66 66 65 64 69 70 71 73 70 69 71 68 66 64 64 63
26 28 30 27 15 5 4 19 27 30 30 34 44 50 53 55 60 62 64 65 67 68 68 68 69 69 67 74 69 70 74 76 73 71 69 67 65 65
22 23 23 24 24 24 19 4 6 13 19 24 34 42 49 53 54 55 54 58 60 62 66 64 68 70 75 65 65 68 74 80 79 76 74 71 67 68
25 25 26 26 24 23 25 22 21 18 11 7 14 22 29 33 37 36 39 41 49 53 58 60 62 73 75 77 77 64 64 71 74 75 74 74 68 70
29 30 31 30 29 27 26 24 22 22 22 22 21 23 18 19 24 32 46 49 50 50 52 48 51 57 69 72 66 65 65 68 69 72 75 78 77 77
30 33 34 34 34 34 33 33 32 31 29 28 27 26 27 28 29 28 27 30 37 45 51 57 53 55 63 59 62 65 65 66 67 68 71 73 73 75
33 35 37 38 39 40 40 40 39 38 38 38 38 38 37 36 35 34 33 37 37 35 36 41 48 55 58 59 64 63 60 59 64 64 62 58 64 71
34 37 39 41 43 44 44 44 44 44 44 44 45 46 46 47 46 45 45 43 42 41 42 42 42 45 48 52 56 60 62 62 60 65 62 71 74 66
40 43 45 45 47 48 47 47 47 47 47 48 50 51 52 53 54 54 54 53 52 51 50 48 48 48 47 49 51 52 56 60 61 66 68 71 69 64
48 50 52 53 53 50 47 47 47 48 51 53 53 54 56 58 58 58 59 61 61 61 60 58 57 56 54 53 54 51 53 53 56 59 64 69 70 70
53 54 55 54 52 50 48 48 48 49 50 52 53 55 57 60 62 63 64 65 66 66 68 68 67 65 64 62 61 60 57 57 57 56 58 62 65 64
57 56 54 51 50 50 52 55 58 60 62 63 65 66 67 68 69 70 70 70 70 70 71 72 74 74 74 72 70 69 67 66 65 63 61 60 61 62

GFSNE_500_spd_138.txt.gz
Wind_Speed
49 50 46 49 52 55 55 56 58 57 50 53 56 68 67 65 59 54 53 59 51 48 49 47 47 53 54 53 50 54 50 49 48 46 43 41 39 40
44 45 44 43 46 49 51 53 52 51 50 53 63 67 67 64 61 55 57 36 47 47 47 49 46 49 48 56 56 55 55 52 51 49 46 45 41 41
49 48 47 47 45 43 45 47 48 50 46 45 55 61 65 65 66 67 60 52 54 52 52 52 49 46 41 51 56 56 60 55 54 53 49 47 46 45
49 47 45 48 53 52 52 53 53 51 49 45 49 53 56 61 64 65 67 62 44 46 49 52 55 53 43 43 53 55 59 61 57 55 51 51 49 48
44 48 49 52 56 58 58 59 58 55 56 55 54 53 54 54 59 62 62 64 57 44 42 58 57 53 46 47 39 46 55 60 58 53 51 52 52 49
48 51 52 54 54 55 55 54 54 57 57 56 56 58 60 60 55 58 61 60 62 58 55 38 59 54 53 52 56 55 57 57 62 59 57 53 51 50
42 47 49 49 49 52 52 54 55 55 54 55 53 51 57 64 60 57 58 59 60 67 60 61 44 51 53 53 49 55 54 60 62 62 57 56 55 54
39 37 37 40 45 47 48 49 50 51 54 60 57 57 53 53 58 64 61 61 61 67 71 68 56 58 58 57 58 58 57 57 61 68 65 59 60 58
27 28 27 23 24 33 41 49 49 47 49 48 51 60 58 53 53 55 59 62 63 66 65 65 64 63 63 62 60 59 61 58 57 59 60 61 63 59
13 17 16 14 11 11 19 22 31 41 44 49 48 50 58 58 54 54 56 57 64 65 65 65 65 63 63 63 63 61 60 60 59 58 61 61 61 59
20 22 25 16 16 13 11 14 22 24 28 35 42 44 48 54 54 52 53 56 59 64 65 65 64 63 63 60 60 60 61 61 62 62 61 62 64 63
19 24 27 30 12 16 8 9 19 21 25 28 26 34 40 48 53 52 53 55 58 60 64 65 65 64 64 64 63 64 64 64 64 65 64 64 63 64
17 20 23 25 25 26 28 22 8 3 12 23 29 29 36 42 46 50 53 54 57 59 60 62 64 66 67 67 67 67 67 69 69 68 68 68 68 68
15 19 20 22 22 24 23 22 24 25 20 8 13 20 32 34 39 41 49 55 58 60 62 64 66 67 69 70 70 70 71 71 71 72 69 71 69 72
17 19 21 23 25 26 27 27 27 23 21 20 23 25 10 17 27 35 45 49 49 54 58 63 68 70 71 72 73 74 75 75 75 75 67 69 71 72
19 21 23 25 25 26 27 27 28 29 29 29 27 25 25 25 25 21 23 29 37 43 50 56 59 62 66 71 74 75 76 75 74 74 76 74 72 72
23 25 26 27 29 31 32 32 32 32 32 31 31 31 31 31 31 31 31 30 29 28 32 41 50 53 56 58 64 68 68 71 71 71 75 79 81 77
27 28 31 33 34 37 38 39 41 41 40 39 38 38 37 37 38 38 39 39 39 37 37 38 37 37 43 53 59 61 61 63 72 71 73 73 76 75
32 34 38 39 41 41 42 44 45 46 47 44 43 42 42 43 43 44 45 46 47 47 48 48 46 45 43 44 47 50 59 63 67 67 68 71 70 74
36 39 41 43 45 47 48 49 49 47 46 44 44 44 45 45 46 48 48 50 52 54 55 56 56 55 55 52 51 51 49 51 55 58 62 66 69 72
40 42 45 47 49 50 51 49 46 42 41 42 44 45 47 48 50 51 52 53 54 55 57 59 62 62 63 63 62 60 55 56 54 53 55 58 60 63
44 46 49 52 53 50 47 45 45 47 49 51 52 53 55 57 59 61 62 63 63 63 63 63 65 66 67 68 69 69 68 64 64 60 58 56 57 59
48 52 55 55 51 45 46 49 51 53 55 58 61 63 64 65 67 68 69 71 71 72 72 72 73 73 73 73 72 72 73 74 72 71 70 66 63 61

GFSNE_500_spd_144.txt.gz
Wind_Speed
47 45 47 48 45 45 50 50 49 49 49 47 50 55 62 65 68 66 69 73 77 77 74 68 68 67 61 59 58 54 46 53 52 50 48 49 51 51
41 41 42 44 45 44 41 44 46 46 39 42 44 49 55 61 65 67 71 71 71 77 78 75 71 70 68 65 59 54 58 53 55 52 49 46 48 50
40 42 43 41 40 37 37 40 40 43 40 41 40 43 49 55 58 66 71 70 68 70 70 73 76 73 70 70 65 59 45 46 45 54 53 56 52 49
35 39 38 40 41 41 41 39 39 38 43 39 38 41 42 47 53 57 68 72 71 71 70 68 68 71 72 71 65 60 58 51 51 47 49 55 56 58
27 32 34 36 38 41 43 45 45 43 45 42 41 42 43 43 41 48 56 62 66 69 65 62 64 67 69 72 70 62 61 60 61 59 54 53 55 57
26 28 29 29 30 31 34 42 48 51 51 50 49 45 45 45 45 44 45 50 56 62 58 57 55 59 68 70 71 63 66 69 69 67 63 61 61 59
26 28 31 32 31 28 32 36 41 48 50 53 53 52 49 49 49 48 49 50 48 50 52 54 55 53 56 69 69 75 64 57 71 73 68 68 65 64
23 27 29 31 32 35 35 37 30 30 38 48 51 52 53 52 50 50 51 51 53 52 52 52 52 55 54 59 75 76 79 53 58 65 70 69 67 65
19 21 22 17 18 19 20 23 21 17 15 22 35 43 45 50 50 49 51 51 52 56 58 58 57 53 53 52 65 62 69 79 63 55 53 62 65 68
18 17 13 9 7 8 13 17 15 18 18 12 14 22 32 37 42 47 50 52 51 50 54 54 56 57 55 55 54 56 62 68 77 58 47 58 64 66
19 16 14 7 6 6 10 14 17 19 13 13 11 9 12 20 31 37 39 41 42 51 57 56 53 56 57 57 58 60 61 64 66 72 67 56 62 50
19 13 11 9 8 8 10 13 15 16 17 16 15 14 11 16 18 19 28 35 41 45 48 57 59 57 59 55 55 60 63 62 65 68 70 74 64 56
17 17 14 10 9 8 9 13 15 16 17 16 15 16 9 11 14 18 24 26 30 36 46 51 57 60 61 61 59 55 61 68 67 69 62 65 75 72
18 18 16 14 10 9 10 11 13 15 15 17 16 15 15 17 18 13 13 18 26 31 33 37 51 58 61 63 61 58 56 60 68 69 65 61 64 63
17 18 16 15 13 14 15 17 17 19 19 20 20 20 21 21 20 20 22 24 27 21 25 30 34 40 50 56 61 61 59 60 64 67 67 66 63 65
15 15 15 16 18 20 21 23 24 25 25 25 26 26 27 28 28 27 27 27 29 29 31 29 27 32 38 46 55 61 63 62 63 66 68 71 70 69
17 18 19 21 23 24 25 27 29 31 32 33 33 34 35 36 35 34 34 33 33 33 34 35 36 36 33 38 46 51 56 62 67 68 68 68 71 73
21 22 24 25 27 29 32 33 35 37 39 39 39 40 41 42 42 42 41 39 38 37 38 40 42 43 43 46 43 41 44 51 59 65 72 74 73 73
28 29 31 33 34 35 36 38 39 41 42 44 46 46 48 48 47 46 45 44 44 43 42 44 47 48 50 51 51 52 52 51 50 49 54 62 67 73
34 35 37 38 38 40 41 42 44 44 45 47 49 51 52 52 51 48 46 46 46 46 47 48 49 51 53 53 54 59 58 56 58 58 58 56 55 60
38 39 40 41 43 44 45 47 48 48 49 51 53 54 52 50 48 48 48 49 50 50 51 52 53 54 55 58 60 62 64 67 64 61 62 64 65 64
39 41 43 45 46 48 49 51 53 53 54 54 53 51 49 48 49 49 51 52 53 55 57 60 62 63 65 66 66 66 68 71 75 73 71 69 67 68
42 44 45 46 46 48 49 48 47 46 46 46 46 47 49 51 53 55 57 59 61 62 64 65 67 68 70 71 72 72 73 74 75 78 80 79 78 77

GFSNE_500_spd_150.txt.gz
Wind_Speed
49 49 48 46 44 42 43 44 45 45 47 50 52 54 56 58 60 62 64 65 69 70 69 70 71 72 72 72 72 71 68 66 65 59 60 54 50 45
47 48 46 42 39 38 39 39 40 42 44 45 47 49 51 55 59 62 65 66 66 67 69 70 71 73 77 79 79 77 76 73 71 70 64 55 51 56
47 42 42 41 38 37 37 37 36 38 40 42 45 49 52 53 54 55 59 63 65 65 64 66 66 70 74 79 84 84 82 81 79 75 71 64 63 55
41 38 38 39 36 37 36 38 39 38 39 42 44 46 47 51 54 56 58 60 61 60 61 61 61 61 64 69 78 83 86 86 85 81 76 66 63 69
36 35 36 37 35 33 33 32 29 34 38 42 42 45 47 44 50 55 55 57 57 59 60 60 57 57 58 59 62 70 80 86 86 85 81 80 76 71
34 33 32 32 31 28 27 25 23 22 24 31 39 44 44 45 45 51 54 57 55 56 56 55 54 53 54 56 59 60 66 72 76 78 78 80 81 79
33 32 30 29 27 25 22 21 23 24 24 26 24 31 37 41 46 45 50 52 57 56 56 56 54 49 49 49 52 56 59 64 68 68 70 73 78 80
32 33 30 26 26 25 21 20 21 21 20 22 22 26 28 31 38 48 50 52 58 59 58 57 56 55 51 49 49 53 56 61 65 67 64 67 68 74
34 33 30 28 26 25 22 21 19 18 16 17 16 18 20 20 21 24 35 49 56 60 60 59 58 58 56 53 51 52 54 58 60 62 61 63 63 63
33 31 31 30 26 25 23 22 18 18 17 12 11 12 9 10 7 11 12 20 36 49 56 59 59 59 59 58 55 52 52 54 58 61 61 61 61 63
24 25 25 25 25 25 22 21 19 19 15 10 9 10 13 14 12 5 5 8 13 26 38 50 57 59 59 59 58 57 55 55 56 58 59 62 64 68
20 22 19 21 23 23 23 22 19 18 16 12 10 11 12 12 12 14 17 12 7 11 18 29 41 51 57 60 59 60 60 61 61 60 61 63 64 62
13 14 15 17 21 19 23 20 20 17 16 14 14 14 15 16 16 15 14 13 16 14 8 13 23 31 38 48 56 59 60 61 63 65 65 66 67 66
12 11 11 13 14 14 16 19 19 18 19 19 19 19 19 19 18 19 19 19 19 17 16 18 18 19 22 29 36 42 47 52 56 61 64 65 67 67
12 11 12 12 13 14 15 16 18 19 21 23 23 23 24 25 25 24 24 26 26 26 27 27 26 27 28 26 29 32 35 41 46 50 57 61 65 69
9 10 10 10 11 12 14 16 18 20 22 24 26 28 30 31 33 33 32 32 31 31 32 33 33 33 34 35 36 37 36 40 41 43 48 52 59 64
12 13 13 14 16 17 19 21 23 26 28 31 32 34 35 36 37 37 37 37 38 39 40 38 38 39 40 40 41 42 44 45 46 46 47 47 50 54
18 18 19 21 22 24 26 28 31 33 35 37 39 40 40 41 42 43 44 45 46 46 48 49 50 51 50 49 49 50 50 51 52 53 52 50 54 53
23 24 25 27 29 31 32 34 36 37 38 40 41 42 43 45 46 47 49 50 51 52 52 53 55 57 59 61 63 58 54 55 57 59 60 59 56 57
29 30 31 32 34 35 36 37 38 40 41 43 44 45 46 47 48 49 50 50 51 53 54 54 54 55 56 57 58 62 63 60 58 60 62 65 65 63
33 34 35 36 36 38 38 40 41 42 43 44 45 46 47 48 48 49 50 51 54 55 56 57 57 57 56 56 56 58 61 64 63 62 62 64 65 67
35 36 37 38 39 40 41 42 43 43 44 45 46 48 49 50 51 53 55 57 58 60 61 61 61 62 63 63 63 62 63 65 68 67 66 67 67 66
35 37 38 40 41 41 42 43 44 46 47 49 50 50 50 50 52 54 56 57 57 57 56 56 57 58 59 61 63 64 65 66 66 69 75 75 75 74

GFSNE_500_spd_153.txt.gz
Wind_Speed
40 43 42 43 47 47 50 49 50 49 44 46 49 53 55 58 61 65 67 69 68 69 69 70 72 71 70 69 69 67 67 66 65 63 60 55 53 51
46 48 51 50 51 52 50 50 46 45 41 40 45 48 52 55 55 58 62 67 66 67 67 65 68 71 72 72 72 73 73 73 74 72 70 65 60 59
47 48 49 47 47 48 47 46 43 40 39 37 38 42 48 50 52 53 55 58 63 65 67 67 65 66 69 70 72 75 77 79 79 79 78 74 72 68
46 46 46 43 44 42 40 41 41 39 38 38 39 40 41 46 48 52 53 54 57 60 66 68 69 68 67 67 69 72 76 81 83 83 83 80 78 77
42 41 40 39 39 37 36 38 37 35 34 33 37 39 40 42 46 49 54 56 55 56 58 60 62 64 64 66 67 68 71 75 81 83 83 84 83 82
37 37 36 36 36 35 32 31 31 30 28 27 26 29 34 40 41 43 49 56 53 54 56 57 55 55 58 62 62 61 60 64 69 74 78 81 83 85
34 35 36 35 34 32 31 27 26 24 23 22 22 23 23 25 31 36 39 44 49 50 51 54 56 56 56 56 57 58 59 59 59 60 64 68 71 73
37 38 37 37 36 33 30 28 26 24 21 19 21 21 22 24 26 25 31 41 45 47 50 54 55 56 58 57 58 57 57 56 56 58 60 63 66 68
36 37 37 37 37 33 31 30 26 25 22 19 20 18 17 20 21 21 24 27 35 43 51 53 55 53 55 55 56 57 57 56 55 54 55 56 59 63
30 32 34 36 35 31 32 30 26 24 23 18 19 17 16 12 11 13 14 18 19 21 32 50 56 58 58 58 57 57 57 57 57 56 56 55 56 58
23 24 24 22 20 22 23 26 26 24 22 17 17 16 14 11 9 10 12 13 9 12 14 23 38 52 61 62 61 60 59 59 58 59 58 57 55 56
22 23 23 19 20 18 17 24 23 23 16 18 18 16 15 13 11 10 11 11 13 17 11 11 12 23 37 50 57 60 62 61 60 59 59 58 58 56
20 18 16 14 13 14 15 18 20 21 19 16 19 18 16 14 14 14 14 15 15 16 15 15 12 10 13 22 32 43 51 55 57 58 60 61 62 61
15 11 11 11 11 12 12 12 13 16 14 16 18 19 19 18 18 18 20 20 20 20 21 22 21 18 18 18 17 22 31 36 44 52 57 60 62 64
16 12 10 11 10 9 10 10 11 12 14 17 19 22 22 22 23 24 25 26 27 26 26 27 27 28 28 27 27 28 27 28 32 36 42 49 56 61
15 13 10 10 9 8 9 10 11 12 14 17 19 22 25 27 29 31 32 32 32 32 33 32 31 32 32 33 34 35 36 37 38 39 39 41 43 48
17 18 18 17 15 16 16 17 19 21 22 24 26 28 31 33 35 36 37 38 38 38 38 39 40 41 41 42 42 43 43 43 44 46 48 48 48 48
17 19 19 20 21 22 23 24 25 27 28 30 31 33 35 36 38 39 40 41 42 43 44 46 49 51 51 49 50 51 52 53 54 54 55 56 57 57
22 23 24 25 27 28 29 30 32 33 34 36 37 38 39 40 41 42 43 45 46 47 48 50 51 52 54 57 60 60 60 59 60 62 63 63 63 65
28 29 29 30 32 33 34 35 36 37 38 39 40 42 43 44 45 46 48 50 51 52 53 54 55 56 56 58 59 62 62 63 64 64 62 63 66 67
31 31 32 32 34 35 36 36 38 39 40 41 42 43 44 46 47 47 49 50 51 52 52 54 55 58 60 62 65 67 69 69 67 67 67 67 64 65
30 31 32 33 34 35 37 38 40 41 42 43 44 45 47 47 48 48 48 49 49 51 53 55 58 59 62 63 65 66 68 71 72 71 70 70 69 70
30 31 33 34 36 37 39 40 42 43 44 45 46 45 45 43 44 46 47 48 50 53 55 57 58 59 59 59 59 59 59 61 63 66 70 71 71 72

GFSNE_500_spd_156.txt.gz
Wind_Speed
43 43 45 46 44 44 43 45 46 48 51 48 49 51 50 53 55 55 59 62 64 66 68 70 71 68 68 67 67 66 62 60 60 57 54 49 51 51
48 46 48 48 48 48 52 50 50 50 50 50 53 53 51 54 57 59 59 62 64 67 68 69 70 71 69 69 67 68 66 66 67 67 67 61 59 60
50 51 50 48 48 48 48 46 46 47 48 49 51 53 53 50 51 56 58 61 63 66 69 70 72 73 72 71 69 67 69 69 69 71 70 70 68 68
46 46 45 43 42 43 43 43 42 43 43 44 46 48 48 47 45 47 54 57 60 63 65 67 70 70 69 69 68 68 69 70 72 73 75 75 75 75
45 43 39 37 37 37 36 36 37 37 40 38 39 39 41 44 43 42 45 52 55 58 60 62 63 63 64 64 64 65 67 69 71 74 76 78 80 79
40 39 38 36 35 34 34 34 34 35 34 33 33 34 35 36 36 39 41 42 48 51 55 59 60 61 61 61 59 60 65 69 71 72 73 75 78 80
34 34 34 34 34 35 35 34 34 31 30 30 30 30 28 26 28 29 33 36 41 46 51 53 54 57 57 56 57 58 58 59 68 73 75 74 75 77
33 33 34 35 37 38 37 35 33 31 29 30 29 26 24 22 22 23 23 25 31 37 40 46 54 57 55 54 58 59 59 59 60 64 71 75 76 75
32 32 33 34 34 35 36 36 34 32 31 30 30 26 22 20 17 15 18 21 22 23 33 42 46 55 61 60 56 57 58 59 59 59 65 68 68 67
26 25 26 27 28 29 32 34 35 34 31 30 29 24 20 18 18 14 9 6 11 17 19 24 34 46 53 57 59 59 59 60 60 59 60 64 66 68
24 25 26 27 28 27 27 26 27 28 29 26 27 23 18 18 17 15 14 11 9 8 8 13 18 25 35 47 56 59 59 58 58 59 60 62 63 64
21 23 25 24 23 23 23 24 17 19 21 24 26 20 19 20 19 16 15 12 11 12 10 10 12 12 17 18 27 40 47 52 55 57 58 59 61 62
19 20 21 17 16 15 13 12 15 18 22 24 23 18 20 21 20 20 17 15 15 16 16 15 15 14 15 15 13 15 23 32 41 48 52 56 59 61
19 18 20 15 12 13 11 10 10 12 16 23 24 19 21 23 22 22 20 21 22 22 22 22 21 22 23 22 19 20 19 19 23 31 39 45 51 56
16 16 17 16 11 11 10 10 9 9 11 13 15 16 18 20 19 21 23 24 25 27 28 29 29 28 28 28 28 28 26 27 27 27 28 32 38 45
14 14 15 17 17 16 13 10 9 10 11 13 15 17 19 21 22 24 26 27 29 30 31 33 33 33 33 34 34 34 35 36 36 36 36 36 37 38
19 18 18 17 17 17 17 17 17 18 18 19 21 23 26 28 30 32 33 35 35 35 36 36 37 38 40 40 40 41 43 43 44 45 46 46 47 47
23 22 21 21 20 20 21 22 23 24 26 27 28 29 31 33 34 35 36 38 40 41 43 45 46 46 45 45 47 48 49 50 51 52 53 54 56 56
27 27 27 27 27 27 27 28 29 30 32 33 35 36 37 38 39 40 41 42 44 45 46 47 49 51 53 55 56 56 57 57 58 60 62 63 63 65
30 30 30 31 32 32 32 33 33 34 35 36 37 38 39 40 42 44 45 46 47 48 50 51 52 54 56 58 58 59 59 61 62 63 63 65 68 70
32 33 32 32 32 32 32 33 34 34 35 37 39 40 42 43 45 46 47 48 48 49 50 51 51 52 54 55 56 58 60 61 62 63 65 67 69 71
31 30 30 31 31 31 32 33 35 36 38 40 42 43 44 45 46 46 47 47 47 48 49 49 50 52 54 56 58 60 62 65 67 69 69 70 70 71
29 29 30 30 31 32 34 35 37 38 39 41 43 44 45 45 45 45 45 45 45 46 47 50 52 54 57 59 60 61 63 64 66 67 69 69 69 69

GFSNE_500_spd_162.txt.gz
Wind_Speed
48 48 47 48 50 51 53 54 54 54 56 52 51 50 48 48 50 51 51 50 50 48 45 45 46 52 55 58 61 61 57 58 61 63 58 61 48 51
44 45 49 48 50 49 50 50 52 54 51 50 52 52 52 51 50 49 50 53 54 56 55 51 50 50 53 56 61 64 61 57 59 61 63 60 60 56
45 46 47 46 47 49 51 50 50 49 48 46 46 48 51 50 50 52 53 55 56 57 57 57 58 58 56 55 60 64 65 62 59 59 62 62 58 66
44 46 46 48 52 51 52 51 49 50 48 45 43 43 44 45 46 46 50 54 56 58 61 65 63 57 57 59 59 61 66 67 63 60 60 61 63 67
43 43 45 50 46 42 39 39 40 42 42 42 42 40 40 42 42 43 44 46 49 52 57 59 63 61 60 61 61 61 60 65 68 65 62 64 68 66
45 47 48 44 39 40 41 40 40 40 39 40 39 39 36 38 38 39 41 41 43 46 50 52 56 60 60 61 64 65 64 62 66 66 66 64 65 65
47 46 42 38 38 38 39 39 38 38 38 38 36 35 33 33 35 33 33 33 35 37 40 42 47 53 53 52 54 55 58 63 65 66 64 65 66 68
46 40 37 37 36 35 34 34 34 34 35 35 34 34 35 33 33 30 30 28 31 31 32 36 38 39 42 44 47 52 51 52 57 61 63 63 62 65
42 36 35 34 32 32 33 33 33 33 33 33 30 30 31 30 30 29 30 28 26 27 26 26 25 30 34 36 39 41 44 48 52 53 56 59 61 60
37 34 33 30 29 29 29 32 32 31 30 29 28 28 28 29 29 27 25 24 24 20 21 19 17 12 16 23 28 31 38 44 47 49 51 53 56 59
34 33 30 26 25 25 29 32 29 29 25 25 23 26 25 28 26 25 24 19 20 17 18 18 14 11 10 6 8 14 23 32 40 46 49 53 55 57
34 31 26 24 24 24 27 27 25 24 22 21 21 18 19 21 22 22 21 19 19 18 17 15 14 13 13 11 9 7 7 8 17 28 38 46 53 57
33 30 26 25 25 23 22 21 21 18 16 16 13 12 13 16 18 20 19 19 19 18 17 17 18 17 17 15 14 13 12 13 13 12 15 25 35 43
32 29 27 25 24 23 21 19 19 18 16 15 11 10 12 12 16 17 17 18 19 20 20 20 21 21 21 21 20 18 18 18 18 18 19 19 19 22
30 29 28 25 25 25 24 23 19 16 15 13 12 10 8 7 7 11 15 18 20 21 22 22 24 24 25 24 25 24 24 25 25 25 25 25 25 26
30 29 29 27 27 26 25 24 21 17 15 14 13 13 12 12 12 13 15 17 19 21 23 25 26 28 29 30 31 32 32 32 32 32 33 33 34 34
29 29 30 30 29 29 27 26 24 23 21 19 18 18 17 17 18 18 20 22 24 26 28 30 32 33 34 35 36 37 37 38 38 39 40 40 40 41
29 29 31 31 31 31 30 30 29 28 27 26 26 25 25 26 27 27 28 29 30 31 33 35 36 37 39 40 42 42 43 44 45 46 47 48 49 49
31 31 30 30 29 30 30 31 31 31 31 31 31 31 32 32 32 33 33 34 35 36 37 39 41 42 43 45 48 49 50 51 52 53 54 55 57 58
31 30 29 29 29 30 30 31 32 32 32 33 33 33 33 34 34 35 37 38 39 40 41 42 43 45 46 47 48 51 50 53 54 55 56 58 60 61
29 29 30 30 29 29 31 32 32 33 33 33 34 35 35 35 36 36 38 40 41 42 43 44 46 48 49 51 51 52 53 53 54 55 56 57 57 59
30 30 31 31 31 31 31 32 32 31 32 33 34 35 35 36 37 39 40 41 44 46 48 50 50 49 49 48 48 49 50 52 54 56 57 58 60 60
30 30 31 31 30 30 30 30 31 32 33 34 35 36 37 38 40 42 43 45 48 50 49 47 46 46 47 48 50 51 53 55 56 58 60 62 64 65

GFSNE_500_spd_165.txt.gz
Wind_Speed
47 48 51 52 54 53 53 54 55 58 57 54 53 52 53 53 51 51 52 49 48 47 50 52 53 50 49 50 52 51 54 53 56 60 61 61 62 63
46 50 54 55 51 52 51 52 52 51 54 59 56 51 46 44 45 47 49 48 48 45 46 47 48 50 46 45 43 41 43 49 52 55 58 59 61 65
48 54 50 49 47 47 48 48 49 50 49 46 47 49 47 44 44 45 46 46 47 50 48 45 47 49 52 51 48 44 43 43 44 49 53 58 59 60
54 49 47 46 42 43 46 48 51 47 44 44 43 39 38 40 44 43 44 43 42 45 50 49 48 50 52 56 55 52 50 52 49 45 47 53 58 58
46 44 46 44 48 50 48 46 42 43 41 40 39 37 38 40 41 40 40 42 40 42 45 47 49 50 52 55 60 60 58 57 53 53 50 47 53 57
43 43 46 46 47 46 46 42 40 39 40 40 40 39 38 37 38 38 38 38 38 39 40 42 46 48 49 51 52 54 59 61 59 56 56 56 52 54
40 42 43 42 45 44 41 39 37 36 38 39 38 36 37 37 37 35 34 34 35 35 37 38 41 44 47 50 53 57 55 57 60 62 62 60 59 56
38 42 40 43 43 39 37 35 33 35 34 35 34 34 35 33 36 36 35 34 32 31 29 30 31 35 37 43 47 50 52 53 56 58 58 61 64 61
40 41 42 42 41 34 32 31 31 30 33 35 31 32 33 33 31 32 32 32 30 27 26 26 26 28 29 33 38 41 45 48 51 54 55 56 59 62
40 42 41 41 37 31 28 27 27 30 32 31 28 29 30 28 29 28 30 28 27 26 31 25 23 21 23 21 21 26 30 34 39 46 49 50 54 58
41 39 40 38 34 29 27 27 27 26 27 30 26 23 23 24 25 27 28 26 26 26 21 22 18 20 18 15 12 7 10 19 25 29 34 42 49 52
37 38 38 35 31 28 27 26 24 23 23 24 24 20 18 19 17 18 21 22 25 23 19 20 20 20 18 15 13 10 8 8 5 9 20 29 37 45
37 36 35 32 29 28 26 26 23 23 24 21 17 15 14 13 12 14 16 19 20 17 19 22 21 20 18 16 16 14 13 12 11 10 9 9 14 27
36 35 32 30 29 27 25 25 23 23 23 21 17 14 14 10 8 10 16 17 20 20 18 20 20 20 20 20 21 20 19 18 17 16 17 16 16 15
33 31 30 29 28 27 26 26 24 23 21 19 18 16 13 10 9 9 10 14 15 16 17 19 20 21 23 23 24 24 23 23 23 22 23 23 23 24
31 30 29 28 28 27 27 28 26 24 22 20 19 17 15 14 14 13 13 13 14 16 19 22 23 24 24 26 27 29 30 30 30 30 29 29 31 31
30 30 29 28 29 28 28 29 29 27 26 25 24 23 21 19 19 19 19 19 20 21 23 25 26 28 29 31 32 33 34 35 36 37 37 37 37 38
29 29 29 29 30 29 29 29 30 30 29 29 29 28 27 27 26 26 26 27 28 29 31 30 31 33 34 36 38 39 40 41 43 44 45 46 45 46
28 30 30 29 28 28 28 28 29 29 30 30 30 30 30 30 31 30 30 30 30 31 33 36 36 38 39 40 40 42 45 47 47 49 51 53 55 55
28 29 29 28 27 28 27 28 29 29 30 30 30 31 32 32 31 31 31 32 33 34 35 36 38 40 41 42 44 46 46 49 51 52 54 56 57 59
27 27 28 29 29 29 28 28 29 30 31 32 32 31 31 31 32 33 34 35 36 37 38 39 40 42 43 45 47 49 51 52 52 53 54 55 56 58
27 27 28 28 28 28 29 29 30 30 30 30 31 31 32 32 33 35 36 37 38 39 41 43 44 46 47 49 49 48 47 48 49 50 51 52 54 55
26 25 26 27 27 27 27 27 28 30 31 31 32 33 34 36 37 37 38 39 41 43 45 46 48 50 49 47 47 48 49 51 53 55 57 59 59 60

GFSNE_500_spd_168.txt.gz
Wind_Speed
54 51 52 43 42 47 49 52 55 59 62 63 63 66 61 58 58 59 59 54 51 53 54 56 52 50 48 53 58 58 61 60 61 60 62 63 62 59
50 49 42 39 43 43 48 55 57 57 59 61 62 59 56 52 51 52 53 54 52 47 49 50 51 47 46 47 51 52 56 58 60 59 60 60 59 59
52 47 41 41 42 48 50 55 58 60 59 60 57 53 49 46 48 48 43 43 45 43 45 47 47 46 47 44 45 45 49 52 50 50 51 52 52 55
48 43 44 43 44 47 50 52 54 55 54 53 50 47 47 44 42 41 41 41 40 41 41 42 43 45 44 50 44 42 42 47 46 44 42 43 47 48
48 49 46 43 45 44 45 46 49 49 50 49 46 44 42 43 43 43 43 41 39 38 37 39 40 42 43 43 47 45 43 42 45 46 45 41 39 41
45 42 40 39 43 43 43 40 45 48 48 45 41 40 40 41 42 40 40 40 37 35 34 34 35 37 41 43 43 46 46 45 45 47 51 49 49 49
40 36 37 39 40 39 39 40 43 45 43 40 38 37 38 40 39 38 37 36 37 33 31 32 33 34 36 38 41 43 44 46 47 47 47 53 56 55
32 33 37 39 39 38 39 39 42 43 39 35 33 34 40 39 35 35 35 34 32 34 32 29 29 29 30 32 34 38 42 44 48 50 51 53 59 59
32 35 36 36 37 38 38 37 42 40 33 31 33 33 34 31 32 33 31 31 29 29 31 27 26 25 24 26 26 26 34 42 44 47 52 57 59 57
33 34 35 38 37 36 35 37 38 35 30 28 30 30 32 29 28 31 29 26 27 25 25 24 26 28 24 23 21 22 24 30 38 43 47 51 53 56
35 37 37 36 34 35 35 36 34 31 29 28 28 29 31 26 21 23 24 22 23 22 22 23 24 24 23 19 19 19 19 15 22 30 35 41 49 53
33 33 33 33 33 35 34 33 31 28 26 26 27 25 26 24 22 18 14 15 17 18 21 22 21 18 18 18 20 18 16 16 11 11 14 25 32 41
33 33 33 32 33 33 32 30 29 27 25 25 24 22 20 20 19 16 13 10 12 17 20 21 18 19 19 22 22 19 17 17 16 14 12 10 11 17
33 33 32 32 32 31 29 28 28 26 24 23 21 20 18 18 18 15 11 11 14 16 17 15 17 20 22 21 23 20 20 21 21 20 19 18 17 16
35 34 32 30 28 28 28 27 27 26 25 23 21 19 18 18 17 18 14 12 12 15 16 19 18 18 22 20 20 21 24 24 24 24 24 23 23 23
31 31 30 28 27 27 27 27 26 26 27 26 24 21 21 21 19 19 18 18 17 16 17 18 19 20 20 22 25 26 27 27 28 28 29 30 30 30
30 29 28 27 26 26 27 27 27 27 27 27 27 26 24 25 25 25 23 23 21 21 22 23 24 25 27 28 29 31 32 33 35 36 35 36 36 37
28 27 26 26 26 27 27 27 26 26 26 27 28 29 29 28 28 28 28 27 28 28 28 29 29 30 31 33 34 35 36 38 39 40 41 41 42 43
26 26 26 26 25 26 26 26 27 27 27 27 27 28 29 30 29 30 30 31 31 33 32 31 32 33 34 35 37 39 40 42 43 44 46 47 47 48
26 26 26 26 26 26 27 27 27 27 27 27 27 29 29 30 31 31 32 32 32 32 34 34 35 36 37 38 39 41 42 44 46 48 49 51 54 56
26 25 26 26 26 26 26 27 26 26 27 27 28 30 30 31 31 32 32 32 33 33 34 35 37 38 39 41 42 44 46 47 49 51 53 54 55 56
26 27 26 26 26 27 27 27 27 28 28 28 28 29 30 31 31 32 33 34 35 36 37 39 39 41 42 44 46 47 49 50 53 54 53 52 51 52
26 25 26 25 25 25 26 26 27 29 30 31 32 32 33 34 34 35 36 36 37 38 40 41 42 43 45 46 48 49 48 47 49 51 54 55 56 58

GFSNE_500_spd_174.txt.gz
Wind_Speed
58 58 58 57 51 52 50 50 46 47 42 43 47 43 42 42 47 53 54 53 56 59 63 60 56 55 55 57 58 59 60 66 68 62 65 67 65 70
56 55 52 53 54 55 55 53 50 43 43 42 41 42 43 46 50 54 53 53 55 57 56 53 49 47 47 46 48 50 53 55 57 56 54 55 55 60
58 53 54 55 53 51 47 43 43 44 43 40 42 44 46 51 54 53 51 55 56 52 50 47 47 46 46 48 49 48 46 48 50 50 51 51 51 55
53 53 53 52 50 46 41 45 48 46 45 43 43 44 48 49 48 51 53 56 52 47 46 44 43 46 48 50 48 48 45 45 47 49 49 49 49 50
47 46 53 54 48 45 46 47 49 48 43 42 42 43 44 46 49 52 54 52 47 43 42 41 44 47 49 49 46 45 42 40 43 44 46 47 47 46
50 52 50 49 46 45 46 48 46 41 39 40 42 42 45 47 50 51 50 47 43 40 39 41 44 46 47 45 41 40 39 38 39 40 41 46 44 46
53 48 47 46 47 46 43 41 37 37 39 40 40 42 44 47 50 48 46 41 39 38 40 40 41 43 43 41 37 35 36 35 36 36 37 41 47 49
48 45 47 43 42 41 37 36 37 36 38 38 39 43 46 49 47 44 41 38 36 38 38 38 41 41 38 34 32 30 32 33 33 32 33 34 41 44
32 34 32 30 28 29 32 34 35 39 39 37 41 43 45 46 44 40 37 35 35 35 36 38 37 30 27 26 26 27 28 28 28 29 30 31 34 40
27 27 30 33 33 34 34 38 36 34 36 40 41 40 39 41 39 36 33 32 31 30 32 31 21 19 19 20 21 22 21 21 21 25 27 29 32 35
24 29 32 30 28 29 33 34 33 36 38 39 40 39 40 38 35 32 30 29 26 25 26 19 16 18 18 17 17 18 21 24 23 22 23 24 25 31
31 31 31 31 30 29 29 33 36 37 39 39 38 39 36 33 31 29 28 26 22 21 19 16 17 15 15 17 19 21 21 20 20 18 18 19 20 20
35 30 29 28 31 33 33 35 37 38 38 37 37 35 33 30 29 28 26 22 20 16 16 15 15 14 15 17 19 15 16 16 16 17 16 18 17 15
31 29 30 30 32 34 34 36 37 37 36 35 34 32 30 28 29 29 26 24 19 16 14 15 17 16 18 16 16 16 17 18 21 20 20 18 17 19
31 30 32 33 34 35 37 36 35 34 33 33 31 29 29 28 28 29 28 26 23 21 19 16 17 15 17 20 17 17 21 23 21 22 20 19 20 20
26 29 32 33 35 35 35 34 32 31 30 29 28 28 28 28 28 29 30 29 27 26 24 22 20 19 20 20 18 19 18 20 21 22 22 22 23 24
29 31 32 34 34 35 34 32 30 29 28 28 28 28 29 29 29 28 29 30 31 30 29 28 27 25 24 23 22 22 24 26 26 27 28 28 29 29
36 35 33 35 34 32 32 31 29 28 29 29 29 28 28 29 28 28 28 28 29 30 30 30 30 30 29 29 29 29 29 29 30 31 31 31 32 33
33 33 34 34 32 33 31 29 28 28 29 30 29 28 29 28 27 27 28 28 29 29 30 31 31 31 31 32 33 33 33 32 34 34 36 37 36 37
30 29 29 29 29 29 28 28 28 28 29 29 29 29 29 29 29 28 28 28 29 29 29 30 31 32 33 34 34 35 35 36 37 38 39 39 39 41
26 27 28 28 27 28 28 27 28 29 29 28 28 27 27 27 27 28 29 30 31 31 31 32 32 33 34 36 36 37 38 39 40 39 41 42 43 44
25 25 25 25 25 25 26 28 28 28 27 26 26 27 27 27 27 28 29 30 32 33 34 35 36 36 36 37 39 40 41 42 42 43 43 44 45 47
25 24 24 26 27 26 25 24 24 24 25 26 26 26 26 25 26 28 31 32 34 35 36 36 36 37 38 39 39 40 41 42 43 44 45 45 46 48

GFSNE_500_spd_177.txt.gz
Wind_Speed
47 50 48 49 51 51 51 53 53 54 53 50 51 50 49 52 49 48 42 41 46 49 49 52 56 57 56 58 60 63 66 68 67 68 73 75 77 78
42 41 47 47 49 52 56 58 53 54 53 51 49 47 47 49 48 44 40 43 45 48 52 53 51 54 57 57 57 56 55 53 51 51 53 57 61 61
42 48 52 53 56 56 56 54 50 50 47 43 41 42 45 43 43 42 43 46 45 47 51 52 54 57 57 56 53 49 49 48 49 50 51 51 50 52
49 53 53 52 52 51 46 46 47 46 45 43 43 43 49 50 47 45 43 45 46 47 52 56 59 57 54 51 48 47 46 48 48 51 50 50 49 47
49 50 53 50 46 43 46 49 49 45 43 44 45 46 49 46 41 41 42 45 46 50 55 56 53 51 50 48 48 48 48 49 51 50 48 48 46 44
55 52 50 51 48 45 48 51 44 41 41 42 42 42 39 39 40 41 43 46 49 51 52 49 50 48 45 47 47 46 46 47 46 43 43 42 42 41
50 49 48 48 50 49 50 48 41 41 42 37 35 36 36 37 41 42 46 48 49 49 47 47 47 45 47 47 47 46 45 44 39 38 36 35 36 38
35 43 51 47 46 51 46 43 43 40 37 34 34 33 37 39 43 44 46 47 46 47 44 43 43 43 44 46 45 35 33 32 31 30 31 32 32 35
34 34 36 39 35 30 33 31 31 31 30 32 34 37 38 39 42 43 42 41 41 43 39 38 39 38 39 28 24 25 25 25 25 27 28 29 29 31
36 34 28 23 29 29 29 28 31 34 34 35 36 37 38 40 42 42 41 42 42 39 35 35 33 32 22 21 21 21 21 21 21 20 19 20 25 26
29 28 25 21 22 28 29 30 31 33 32 33 34 36 38 40 40 40 40 39 38 35 32 31 28 23 20 20 20 19 18 16 17 19 21 18 20 22
28 25 25 25 24 26 28 29 32 29 29 32 35 37 37 37 37 38 38 36 35 31 30 27 25 21 20 18 18 18 18 20 20 19 16 15 15 16
31 37 35 28 26 27 28 28 28 31 33 32 34 35 37 38 38 37 36 33 32 29 28 26 22 20 20 19 18 20 20 16 12 13 13 14 14 15
28 26 24 24 25 26 27 27 29 30 32 33 34 36 36 35 35 34 32 31 30 29 28 27 23 20 17 19 19 18 18 15 14 14 17 16 18 18
27 26 23 24 26 27 29 31 31 32 33 33 33 33 32 32 31 31 30 30 30 30 29 28 25 23 20 18 16 18 19 17 17 18 18 19 20 21
30 25 24 26 26 27 28 30 32 32 33 33 33 32 31 30 30 29 30 30 30 30 31 30 28 26 24 23 21 21 19 18 19 20 21 20 20 21
23 25 25 27 29 32 33 32 33 32 33 32 31 30 29 30 30 29 28 29 30 29 29 30 30 30 29 27 26 26 25 23 23 24 25 26 26 26
22 24 27 31 32 32 30 32 32 31 30 30 29 29 28 29 29 28 28 28 29 29 28 28 29 29 29 29 29 28 29 29 29 29 29 29 30 30
20 21 25 27 28 28 29 30 30 29 28 27 27 28 27 27 28 28 29 29 28 28 27 27 28 29 29 30 31 31 31 31 32 33 33 33 34 34
22 25 26 26 24 24 26 27 26 26 26 27 27 27 27 27 27 27 27 27 27 27 28 28 29 30 30 30 31 32 33 34 35 36 36 36 37 38
25 25 24 22 23 23 23 23 25 26 26 26 27 27 26 25 25 26 26 26 26 27 27 28 29 30 30 31 32 33 34 35 36 37 39 39 40 41
20 20 19 20 22 23 24 24 25 26 27 25 24 23 24 25 25 25 25 25 25 26 28 29 31 32 33 34 35 36 37 38 39 40 42 43 43 44
20 24 24 23 23 24 26 25 24 22 22 22 23 24 25 24 24 24 24 26 27 28 29 30 29 30 31 33 34 35 37 38 39 40 41 42 43 44

GFSNE_500_spd_183.txt.gz
Wind_Speed
56 55 48 59 53 52 50 40 45 43 51 53 54 57 53 54 56 56 57 58 58 56 56 55 55 56 54 53 55 58 57 50 50 50 53 52 55 57
53 51 50 48 47 48 44 40 43 45 48 51 54 56 56 58 61 60 60 61 56 55 54 53 52 49 48 48 52 51 48 50 51 50 51 54 57 59
56 49 42 38 40 41 43 46 49 53 56 58 56 58 60 60 60 58 61 56 54 52 53 50 48 47 45 43 44 44 44 46 48 48 51 54 56 58
39 37 37 42 42 46 51 53 55 57 56 56 57 55 57 59 55 51 50 50 51 52 49 45 47 46 40 38 42 44 41 43 47 52 55 60 64 67
35 37 44 48 50 51 58 60 61 59 57 57 59 56 51 51 51 51 52 47 44 44 45 48 44 39 38 40 42 44 47 49 54 58 62 60 58 59
33 33 35 41 45 55 57 61 63 65 67 63 58 55 52 55 55 47 41 41 44 44 43 40 37 38 40 40 48 51 53 53 52 50 50 52 52 53
39 38 36 36 40 45 49 49 49 51 53 57 54 50 51 47 44 48 40 37 42 42 38 39 37 38 41 43 47 48 46 46 47 48 49 50 53 54
37 34 34 36 36 39 43 45 48 50 51 51 49 49 46 44 46 44 41 37 38 36 34 36 37 38 43 42 43 43 44 44 44 45 46 40 38 38
38 35 37 39 39 39 42 45 44 45 45 47 41 45 34 37 34 36 34 36 31 33 35 36 39 42 42 40 41 40 42 41 40 38 34 33 32 33
43 42 42 41 39 38 41 45 40 38 39 38 38 30 30 33 33 34 32 30 31 33 34 38 41 41 40 38 38 39 38 37 35 33 33 29 27 28
44 44 46 44 42 42 42 40 37 29 30 22 20 24 28 30 29 29 26 28 30 33 36 38 39 40 39 36 36 36 35 33 32 31 30 31 31 29
48 46 43 43 43 43 40 40 37 29 18 15 18 22 25 24 22 23 26 27 31 33 36 38 41 39 35 34 33 33 32 31 31 30 30 30 30 29
50 47 44 42 41 41 36 33 28 25 19 19 21 21 19 18 21 24 26 29 31 33 33 33 33 32 31 31 31 31 30 30 29 28 27 27 25 21
52 49 45 40 39 36 30 29 22 19 17 19 18 17 19 21 24 26 28 29 30 31 31 30 30 30 30 30 29 29 28 29 28 25 25 24 21 20
50 45 40 35 31 30 28 25 20 22 24 25 23 20 23 26 29 30 30 30 30 29 28 28 28 28 28 28 28 28 28 28 27 26 24 22 21 20
38 36 34 30 28 27 29 26 23 22 23 22 22 26 29 29 29 28 29 29 28 27 28 28 29 29 29 28 27 27 27 27 28 27 27 25 24 23
28 26 25 25 23 24 24 23 21 22 24 25 29 28 28 29 29 29 28 28 27 27 28 29 28 28 28 27 27 27 27 27 28 29 29 28 27 26
13 17 16 17 18 20 21 22 23 25 28 29 28 29 30 30 28 27 27 26 26 27 28 28 28 29 29 27 27 27 27 27 28 28 29 29 30 30
16 14 14 16 18 19 19 22 24 27 28 28 28 28 27 25 25 25 26 27 28 28 28 28 27 27 27 26 26 26 27 28 28 28 29 30 31 32
15 15 16 16 16 17 20 23 27 28 27 25 25 25 25 25 26 26 27 28 29 28 26 26 25 25 25 25 26 27 28 29 30 30 31 31 32 32
17 15 16 18 20 22 23 24 24 23 22 23 24 25 26 26 26 27 28 27 26 25 25 25 25 24 24 25 26 27 29 30 31 32 33 34 34 36
25 25 27 27 27 25 21 20 20 22 25 25 25 27 26 25 24 25 25 25 26 26 25 24 24 24 25 26 28 28 28 30 28 30 31 32 34 36
27 29 29 26 21 19 20 23 23 23 24 24 23 23 24 24 25 25 25 26 26 26 24 24 25 26 27 28 29 30 31 32 32 33 33 34 33 34

GFSNE_500_spd_186.txt.gz
Wind_Speed
35 38 37 40 44 50 52 49 53 49 49 55 40 45 46 40 45 51 56 57 55 54 55 58 59 59 60 59 59 60 59 59 59 61 58 60 62 63
39 40 42 45 44 39 36 39 40 44 47 46 47 50 52 50 54 57 56 55 58 59 59 62 59 60 58 56 58 58 58 56 56 54 53 51 51 49
38 41 41 39 33 35 39 43 46 48 51 53 52 54 56 57 58 59 60 58 60 61 59 59 59 55 54 55 55 54 52 53 52 49 47 45 42 42
41 42 37 37 31 34 40 46 47 53 56 59 56 55 54 49 46 46 48 49 50 46 46 46 49 48 51 51 51 51 50 50 46 44 44 42 42 46
41 39 38 31 34 35 35 39 48 54 61 63 64 69 65 61 59 54 50 44 47 47 47 43 45 41 43 44 47 48 45 42 41 40 43 46 52 55
40 35 36 36 38 42 44 44 41 49 56 58 55 57 54 54 50 50 47 47 50 54 45 42 38 39 40 41 41 39 37 39 41 42 47 52 54 55
31 34 37 38 43 44 42 41 40 42 47 52 54 57 52 49 48 47 46 44 44 43 42 37 34 37 37 36 32 35 36 39 44 45 47 47 47 48
37 37 38 40 43 46 43 42 42 42 44 47 49 50 51 43 40 41 43 42 37 37 37 33 33 34 33 31 30 33 38 42 44 44 43 44 43 40
35 40 41 44 47 48 47 44 44 44 46 51 47 43 42 39 39 40 41 31 31 32 30 31 28 27 29 30 31 37 40 40 39 41 40 37 36 36
39 42 46 46 46 48 48 46 44 44 47 44 45 43 33 32 33 29 23 24 29 29 28 25 25 26 30 33 36 39 40 38 37 37 35 35 34 33
43 44 47 47 48 49 48 46 42 41 43 40 37 32 19 16 16 18 24 27 26 23 20 23 25 28 30 34 37 39 37 36 35 34 33 31 32 32
45 46 48 51 51 51 48 45 41 38 35 31 27 21 12 11 16 20 23 19 18 20 23 25 27 29 31 33 33 34 34 33 32 30 29 28 29 29
47 49 52 54 53 51 48 44 39 34 29 24 19 16 13 14 16 14 12 15 19 23 24 27 30 31 30 30 31 32 31 30 29 28 27 27 27 27
50 52 55 53 51 49 44 40 36 31 26 23 14 12 15 15 14 14 16 19 22 26 28 30 31 30 28 27 28 28 28 28 28 28 26 25 25 23
52 52 56 45 40 39 38 36 32 26 22 20 19 19 18 17 19 21 23 24 26 28 29 30 30 28 27 26 27 27 27 27 27 27 27 26 24 24
46 49 40 31 30 30 30 30 26 24 22 22 20 20 20 21 24 24 24 25 26 27 28 28 28 28 28 27 27 27 27 27 27 26 26 27 26 25
40 33 27 22 22 21 21 21 20 19 21 21 21 20 22 25 25 26 28 28 28 28 28 27 27 27 26 26 26 27 27 27 26 25 25 25 25 26
31 25 20 18 15 13 14 15 17 19 21 22 22 24 26 26 28 27 28 26 25 25 25 25 26 26 26 27 27 25 25 25 24 24 24 23 24 25
26 19 16 15 13 13 15 17 17 19 20 21 23 26 27 26 25 24 24 24 24 25 26 26 27 27 25 24 24 23 23 23 24 24 24 25 24 26
25 21 20 20 16 15 15 15 17 20 24 27 28 26 23 23 23 24 25 26 26 26 26 25 25 24 23 24 25 23 23 23 24 25 26 27 27 27
26 23 22 22 19 19 22 24 26 26 26 21 19 20 23 25 26 26 26 25 24 23 23 23 25 24 24 24 23 24 24 24 25 25 26 26 27 29
25 25 25 26 27 27 27 27 24 20 19 20 22 25 24 23 23 23 22 23 23 23 24 24 25 24 23 23 23 24 25 26 25 27 27 28 29 29
26 26 26 27 26 22 19 17 17 18 20 20 20 21 22 22 22 23 23 23 24 24 24 23 25 24 24 24 25 25 25 27 28 29 30 31 32 32

GFSNE_500_spd_189.txt.gz
Wind_Speed
38 24 22 24 26 27 29 32 35 37 39 41 40 42 42 43 44 44 45 46 48 53 51 53 55 55 59 60 59 58 58 57 60 56 57 57 58 61
29 24 23 23 23 26 28 30 31 35 41 45 47 47 49 51 50 54 54 54 55 58 58 59 60 58 59 61 61 59 55 56 55 55 54 56 58 57
31 29 30 27 26 25 26 25 31 36 44 52 52 54 54 53 53 54 55 56 55 58 58 55 56 57 58 57 57 53 52 53 51 51 52 53 53 51
32 36 31 27 27 25 21 24 28 31 33 36 39 45 54 60 64 67 68 57 48 45 43 44 45 46 45 46 45 44 44 44 47 48 51 52 52 54
35 33 31 30 27 26 29 32 33 35 38 42 44 43 49 57 50 53 51 54 52 51 49 49 47 43 44 45 43 42 42 42 41 40 44 44 43 39
35 35 34 32 32 33 36 37 39 41 45 46 44 42 43 48 54 55 55 51 47 46 46 46 46 42 47 44 42 41 40 38 38 34 34 35 34 35
37 37 37 37 36 37 39 41 44 46 46 47 45 43 43 46 48 52 54 54 43 42 43 42 37 39 41 40 38 35 35 34 31 28 30 33 38 42
39 38 41 41 42 44 45 44 47 49 50 52 48 45 44 45 50 49 49 46 36 38 38 39 36 33 35 33 32 32 29 29 27 29 33 37 41 44
35 39 44 45 47 48 47 49 49 52 51 47 45 44 46 45 46 45 46 38 34 35 35 33 30 32 32 30 26 24 23 26 30 33 35 38 40 40
37 39 43 46 47 48 51 51 52 51 50 49 45 42 42 41 39 36 28 26 28 30 27 24 27 29 27 22 20 22 25 29 32 36 39 41 40 40
37 41 43 45 46 50 52 54 53 53 50 48 43 40 37 30 29 20 14 16 18 18 21 26 25 19 16 20 22 25 28 33 34 34 36 38 37 34
36 43 44 45 48 52 55 56 57 54 50 44 39 35 28 23 15 8 6 7 13 20 20 16 14 16 21 23 26 28 29 29 30 31 30 28 29 29
37 41 43 47 52 54 57 58 52 47 39 34 33 28 25 17 8 5 7 11 11 7 11 15 18 21 24 27 28 29 28 28 27 26 27 26 27 28
36 39 45 50 54 54 55 46 36 31 26 28 25 18 16 9 9 11 9 11 14 16 18 20 22 24 26 27 28 28 27 27 27 26 26 27 28 28
35 41 46 54 46 47 38 28 24 20 19 19 16 15 16 16 16 14 15 18 19 19 19 21 23 24 26 26 26 26 27 27 28 28 28 28 27 28
36 42 48 43 39 34 27 21 17 14 13 12 14 16 17 17 17 17 19 20 20 22 24 25 26 25 23 23 25 25 26 26 26 26 25 26 27 27
37 42 47 32 31 25 20 16 13 12 10 11 14 15 20 19 18 20 22 22 24 24 24 22 21 20 20 21 23 24 25 28 27 25 25 25 25 25
37 42 34 28 27 21 18 14 12 11 11 13 16 17 19 20 21 22 23 23 21 21 20 20 20 22 23 23 24 25 24 23 22 23 23 23 24 23
37 37 28 27 27 23 19 17 15 14 14 15 17 18 20 23 25 24 21 20 21 22 22 22 22 23 24 23 21 20 22 22 21 21 22 22 23 24
36 35 27 27 26 23 18 17 15 16 18 20 21 24 26 24 19 19 21 22 22 23 23 22 22 21 21 21 21 21 22 22 22 23 23 23 24 25
35 33 26 27 26 22 21 21 23 25 26 25 22 18 16 17 19 22 21 21 20 19 20 22 22 22 21 22 22 20 20 21 22 22 23 24 24 24
33 29 25 26 26 24 24 23 22 21 19 16 15 17 18 18 19 19 20 21 20 20 20 22 22 22 22 21 20 21 21 21 22 23 23 24 25 25
26 24 24 26 26 22 22 20 19 18 18 16 16 17 18 18 18 19 19 21 22 21 21 23 22 22 21 21 20 22 24 24 24 24 25 26 27 27

GFSNE_500_spd_192.txt.gz
Wind_Speed
72 63 32 32 30 25 23 33 34 36 35 32 31 36 39 42 46 47 51 54 55 53 55 57 52 51 54 55 55 56 56 55 56 58 60 62 61 56
54 41 32 31 32 33 32 33 31 29 30 35 37 40 43 48 51 55 58 59 58 56 61 62 61 62 62 62 60 61 62 61 59 61 61 60 62 59
48 38 33 34 31 32 33 30 31 28 29 32 36 41 45 46 46 49 53 58 60 64 65 60 49 48 53 56 54 55 57 59 60 59 57 54 54 53
45 37 36 35 35 34 34 32 30 31 31 33 36 39 42 46 48 46 48 54 60 62 54 52 53 64 56 43 45 43 44 40 41 43 43 44 42 42
40 39 41 39 33 30 31 32 32 33 36 38 40 43 45 47 50 52 50 47 52 53 52 50 47 43 46 44 48 40 40 39 37 38 37 38 40 39
38 43 41 34 33 31 32 37 38 39 41 44 45 46 49 51 48 43 43 45 47 48 50 53 50 43 45 45 48 38 38 39 36 38 37 38 37 36
44 39 37 37 32 34 34 38 42 45 47 49 51 53 55 51 47 46 45 46 47 49 51 50 47 44 45 42 39 38 36 38 38 36 35 36 38 36
35 31 33 27 32 33 37 42 46 50 54 54 55 56 53 52 50 49 46 47 48 49 47 46 42 40 42 35 32 32 33 33 33 34 33 32 31 29
33 29 33 38 32 35 39 44 48 52 53 57 59 55 54 54 51 49 46 45 45 44 39 29 28 29 32 31 29 28 30 33 34 28 25 26 28 32
30 30 31 32 31 34 37 43 48 50 55 60 61 59 56 53 50 45 42 39 37 31 25 23 26 27 25 24 26 29 30 28 22 23 26 28 30 36
31 28 31 30 31 35 39 43 49 55 62 63 61 59 52 45 38 36 32 29 23 18 16 17 18 16 18 23 25 20 17 20 23 26 29 31 34 34
29 30 30 31 33 36 39 45 53 60 61 60 59 47 32 28 27 27 24 16 13 10 8 10 13 16 16 12 14 18 22 24 27 29 31 31 30 30
32 31 30 31 34 36 40 49 57 54 58 52 37 26 19 19 19 18 13 10 8 6 9 11 12 14 15 17 20 23 25 27 28 29 30 31 29 28
33 32 31 32 34 36 43 50 47 48 42 29 22 13 12 11 10 10 11 11 10 10 12 15 18 19 20 21 22 24 25 26 27 27 28 28 29 29
33 31 30 32 32 37 42 43 39 35 26 18 12 9 9 10 12 15 14 14 14 17 17 17 19 21 23 24 25 25 26 26 26 26 27 28 27 26
32 29 29 29 31 37 42 37 29 24 16 14 11 10 13 12 13 16 15 15 17 18 19 23 25 25 24 25 24 23 23 24 24 24 24 26 27 26
30 27 28 28 32 36 37 29 25 20 14 15 11 10 13 14 15 18 19 18 20 21 23 22 19 18 19 20 21 22 23 23 24 25 25 25 24 23
25 25 27 29 33 36 30 25 25 18 13 12 13 14 15 18 18 18 19 21 21 20 19 18 18 19 20 22 22 23 24 23 22 22 22 22 21 21
22 27 26 29 35 33 27 25 22 19 16 16 16 16 15 17 20 22 23 24 18 18 19 20 20 19 19 20 20 19 20 19 20 20 20 21 22 23
25 27 27 32 35 33 25 24 22 20 18 18 20 22 24 25 23 18 15 16 18 18 18 18 19 19 19 18 19 20 21 20 19 20 20 21 22 23
27 26 28 32 34 32 25 25 23 22 19 20 21 21 18 15 14 14 16 17 17 18 18 18 18 19 19 20 20 20 20 20 19 20 21 21 21 23
26 24 29 29 30 29 25 24 23 22 20 18 17 17 17 16 17 16 17 18 17 18 20 20 19 20 20 20 21 21 20 20 21 21 22 22 23 24
23 26 28 28 29 28 25 21 22 22 22 19 19 19 19 19 18 18 18 18 18 18 20 21 21 22 21 21 21 22 23 22 23 25 26 27 27 28